STARLINK-31372, 58939

Orbit data source: Space-Track

STARLINK-31372, 58939 is a payload satellite owned by SpaceX/Seattle (US) in LEO that was launched on Sat, 10 Feb 2024 UTC via an FALCON 9 launch vehicle from the Air Force Western Test Range (AFWTR). Payload-class satellites include a variety of spacecraft equipped with specific instruments for various scientific and technological missions. These include communications satellites like Starlink; space stations such as the ISS; scientific satellites like the Hubble; Earth observation satellites from companies like Planet Labs, Umbra, and HawkEye 360; GPS; miniature CubeSats for education and research; and military/defense satellites.

Loading next visibility...
Identifier
58939, 2024-027J
Orbit
LEO
Country
Flag of USUS
Related business
Manufacturer
SpaceX/Seattle
Mission
Operational Commercial Communications
Bus & Motor
STARLINK V2M, Unknown motor
Mass
730 kg wet, ~700 kg dry
Launch date (UTC)
2024-02-10 (2 years ago)
Launch vehicle
FALCON 9
Launch site
Air Force Western Test Range (AFWTR)
Object type
Payload
Rocket body
Debris
Shape & HBR
Box + 2 Pan, 17.7 m
Radar Cross Section
33.884 m², Large (>1 m²)

Expand to show TLE details & history
Last TLE update: 2 days ago

TLE from 2 days ago
0 STARLINK-31372
1 58939U 24027J   26171.35315595  .00003506  00000-0  13042-3 0  9999
2 58939  53.1597 192.9688 0001093  80.4972 279.6152 15.30203380133040
Epoch: 2026-06-20T08:28Z
TLE epoch observation values (Epoch: 2026-06-20T08:28:32.674Z)
Latitude
-0.00002°
Longitude
157.26364°
Altitude
475.98 km
Speed
7.629 km/s
True Right ascension
12h 51m 52s
True Declination
0° 00' 00"
Sunlit
Object was in daylight at epoch
Visualization orbit readout
Latitude
Unknown
Longitude
Unknown
Altitude
Unknown
Speed
Unknown
Apparent Right ascension
Unknown
Apparent Declination
Unknown
Sunlit
N/A
Visualization observer readout
Local Sidereal Time
21:32:58
Azimuth
Unknown
Elevation
Unknown
Doppler factor
Unknown
Orbital elements
Apogee altitude
476.211 km
Perigee altitude
474.712 km
Semi-major axis
6,853.598 km
Eccentricity
0.00011
Inclination
53.1597°
RAAN
192.9688°
Arg. of periapsis
80.4972°
True anomaly
279.60285°
Mean anomaly
279.6152°
Eccentric anomaly
279.60903°
Mean motion
3.8253 °/min
Orbital period
94.11 mins
BSTAR
0.00013042
Loading maneuver chart data...
Computing Atmospheric mass density...
Loading historical data...
Loading historical data...
Loading historical data...
Loading historical data...
Loading historical data...
Loading historical data...
Loading historical data...

Documentation

Showing up to 5 results
|